Weather History for KCAD - October, 2013

Change the Weather History Date:

Saturday, October 5, 2013

  Actual Average Record
Temperature  
Mean Temperature 60 °F -  
Max Temperature 64 °F 59 °F 80 °F (1967)
Min Temperature 56 °F 38 °F 19 °F (1952)
Degree Days  
Heating Degree Days 5    
Growing Degree Days 10 (Base 50)    
Moisture  
Dew Point 57 °F    
Average Humidity 91    
Maximum Humidity 94    
Minimum Humidity 87    
Precipitation  
Precipitation 0.00 in - - ()
Sea Level Pressure  
Sea Level Pressure 29.97 in    
Wind  
Wind Speed 10 mph (East)    
Max Wind Speed 15 mph    
Max Gust Speed 20 mph    
Visibility 5 miles    
Events Fog , Rain    
Averages and records for this station are not official NWS values.
T = Trace of Precipitation, MM = Missing Value Source: NWS Daily Summary

Daily Weather History Graph

Daily Weather History Graph

Search for Another Location

Airport or City:

Trip Planner

Search our weather history database for the weather conditions in past years. The results will help you decide how hot, cold, wet, or windy it might be!

Date:

Astronomy

Oct. 05, 2013 Rise Set
Actual Time 7:44 AM EDT 7:14 PM EDT
Civil Twilight 7:15 AM EDT 7:43 PM EDT
Nautical Twilight 6:42 AM EDT 8:17 PM EDT
Astronomical Twilight 6:08 AM EDT 8:50 PM EDT
Moon 8:25 AM EDT (10/5) 7:29 PM EDT (10/5)
Length of Visible Light 12h 28m
Length of Day
11h 30m
New Moon, 0% of the Moon is Illuminated
Oct 5
New Moon
Oct 11
First Quarter
Oct 18
Full
Oct 26
Last Quarter
Nov 3
New

Hourly Weather History & Observations

Time (EDT) Temp. Dew Point Humidity Pressure Visibility Wind Dir Wind Speed Gust Speed Precip Events Conditions
12:14 AM 59.0 °F 57.2 °F 94% 30.06 in 0.2 mi East 6.9 mph - N/A Fog Fog
12:35 AM 59.0 °F 57.0 °F 93% 30.07 in 0.2 mi East 9.2 mph - N/A Fog Fog
12:55 AM 57.9 °F 55.9 °F 93% 30.06 in 0.2 mi East 9.2 mph - N/A Fog Fog
1:14 AM 57.7 °F 55.8 °F 93% 30.05 in 0.2 mi East 10.4 mph - N/A Fog Fog
1:35 AM 56.7 °F 54.5 °F 92% 30.05 in 0.2 mi East 9.2 mph - N/A Fog Fog
1:55 AM 56.5 °F 54.5 °F 93% 30.05 in 0.2 mi East 9.2 mph - N/A Fog Fog
2:14 AM 56.5 °F 54.5 °F 93% 30.05 in 0.5 mi East 8.1 mph - N/A Fog Fog
2:35 AM 56.5 °F 54.5 °F 93% 30.05 in 1.0 mi East 10.4 mph - N/A   Overcast
2:55 AM 56.5 °F 54.5 °F 93% 30.04 in 0.8 mi East 8.1 mph - N/A   Overcast
3:14 AM 56.5 °F 54.5 °F 93% 30.03 in 0.8 mi East 10.4 mph - N/A   Overcast
3:35 AM 56.5 °F 54.5 °F 93% 30.04 in 1.2 mi East 9.2 mph - N/A   Overcast
3:55 AM 56.5 °F 54.5 °F 93% 30.04 in 1.0 mi East 6.9 mph - N/A   Overcast
4:14 AM 56.5 °F 54.5 °F 93% 30.05 in 1.0 mi East 9.2 mph - N/A   Overcast
4:35 AM 56.5 °F 54.5 °F 93% 30.05 in 1.5 mi East 8.1 mph - N/A   Overcast
4:54 AM 56.5 °F 54.5 °F 93% 30.04 in 2.5 mi East 11.5 mph 18.4 mph N/A Rain Light Rain
5:15 AM 56.5 °F 54.5 °F 93% 30.03 in 2.5 mi East 10.4 mph - N/A Rain Rain
5:35 AM 56.5 °F 54.5 °F 93% 30.03 in 3.0 mi East 9.2 mph - N/A Rain Light Rain
5:54 AM 56.5 °F 54.5 °F 93% 30.02 in 4.0 mi East 11.5 mph 18.4 mph N/A   Overcast
6:15 AM 56.5 °F 54.5 °F 93% 30.03 in 4.0 mi East 12.7 mph 16.1 mph N/A Rain Light Rain
6:35 AM 56.5 °F 54.5 °F 93% 30.03 in 7.0 mi East 13.8 mph 18.4 mph N/A   Overcast
6:54 AM 56.5 °F 54.5 °F 93% 30.02 in 10.0 mi East 12.7 mph - N/A   Overcast
7:15 AM 56.5 °F 54.5 °F 93% 30.03 in 10.0 mi East 10.4 mph - N/A Rain Light Rain
7:35 AM 56.5 °F 54.5 °F 93% 30.03 in 10.0 mi NE 6.9 mph - N/A Rain Light Rain
7:54 AM 56.5 °F 54.5 °F 93% 30.05 in 10.0 mi East 8.1 mph - N/A Rain Light Rain
8:15 AM 56.5 °F 54.1 °F 92% 30.06 in 7.0 mi NE 5.8 mph - N/A Rain Heavy Rain
8:35 AM 56.5 °F 54.1 °F 92% 30.05 in 10.0 mi East 10.4 mph - N/A Rain Rain
8:54 AM 56.5 °F 54.1 °F 92% 30.05 in 10.0 mi NNE 6.9 mph - N/A   Light Drizzle
9:15 AM 56.5 °F 54.1 °F 92% 30.04 in 10.0 mi East 10.4 mph - N/A   Overcast
9:35 AM 56.5 °F 54.0 °F 91% 30.03 in 10.0 mi East 10.4 mph - N/A   Overcast
9:54 AM 56.5 °F 54.0 °F 91% 30.03 in 10.0 mi East 9.2 mph - N/A   Overcast
10:15 AM 56.5 °F 53.8 °F 91% 30.04 in 1.0 mi ENE 6.9 mph - N/A Rain Rain
10:35 AM 59.0 °F 56.3 °F 91% 30.02 in 10.0 mi East 10.4 mph - N/A   Overcast
10:54 AM 59.0 °F 56.3 °F 91% 30.02 in 10.0 mi East 12.7 mph 17.3 mph N/A   Overcast
11:15 AM 59.0 °F 55.9 °F 90% 30.01 in 10.0 mi East 13.8 mph 17.3 mph N/A   Overcast
11:35 AM 59.0 °F 55.9 °F 90% 30.00 in 10.0 mi East 10.4 mph 16.1 mph N/A   Overcast
11:54 AM 59.4 °F 56.3 °F 90% 29.98 in 10.0 mi East 15.0 mph - N/A   Overcast
12:15 PM 61.7 °F 58.3 °F 89% 29.98 in 10.0 mi ESE 11.5 mph 16.1 mph N/A   Overcast
12:35 PM 61.7 °F 58.3 °F 89% 29.98 in 10.0 mi ESE 12.7 mph - N/A   Overcast
12:54 PM 61.7 °F 58.1 °F 88% 29.99 in 10.0 mi ESE 9.2 mph - N/A   Overcast
1:15 PM 61.7 °F 58.3 °F 89% 29.98 in 10.0 mi ESE 10.4 mph - N/A   Overcast
1:35 PM 61.7 °F 58.1 °F 88% 29.98 in 10.0 mi ESE 8.1 mph - N/A   Overcast
1:54 PM 62.6 °F 58.6 °F 87% 29.98 in 10.0 mi SE 11.5 mph 16.1 mph N/A   Overcast
2:15 PM 62.6 °F 59.2 °F 89% 29.97 in 10.0 mi ESE 11.5 mph - N/A   Overcast
2:35 PM 62.6 °F 59.0 °F 88% 29.96 in 10.0 mi SE 11.5 mph - N/A   Overcast
2:54 PM 62.6 °F 58.8 °F 87% 29.94 in 10.0 mi ESE 15.0 mph - N/A   Overcast
3:15 PM 61.7 °F 58.3 °F 89% 29.94 in 10.0 mi SE 10.4 mph 19.6 mph N/A   Overcast
3:35 PM 61.7 °F 58.5 °F 89% 29.93 in 5.0 mi ESE 10.4 mph 18.4 mph N/A   Overcast
3:54 PM 61.7 °F 58.6 °F 90% 29.94 in 5.0 mi ESE 10.4 mph - N/A   Overcast
4:15 PM 61.7 °F 58.6 °F 90% 29.93 in 7.0 mi ESE 13.8 mph 19.6 mph N/A   Overcast
4:34 PM 62.6 °F 59.5 °F 90% 29.93 in 10.0 mi ESE 10.4 mph 16.1 mph N/A   Overcast
4:55 PM 62.4 °F 59.4 °F 90% 29.92 in 10.0 mi ESE 13.8 mph - N/A   Overcast
5:15 PM 62.2 °F 59.4 °F 90% 29.92 in 10.0 mi ESE 10.4 mph - N/A   Overcast
5:34 PM 62.4 °F 59.5 °F 90% 29.91 in 10.0 mi ESE 8.1 mph - N/A   Overcast
5:55 PM 62.1 °F 59.2 °F 90% 29.91 in 3.0 mi ESE 10.4 mph - N/A   Overcast
6:15 PM 62.1 °F 59.4 °F 91% 29.90 in 4.0 mi ESE 9.2 mph - N/A   Overcast
6:34 PM 62.1 °F 59.5 °F 91% 29.90 in 3.0 mi ESE 10.4 mph - N/A   Overcast
6:55 PM 62.1 °F 59.5 °F 91% 29.90 in 1.5 mi ESE 9.2 mph - N/A Rain Light Rain
7:15 PM 62.2 °F 59.9 °F 92% 29.89 in 1.8 mi ESE 9.2 mph - N/A   Light Drizzle
7:34 PM 62.2 °F 59.9 °F 92% 29.89 in 1.5 mi East 6.9 mph - N/A   Overcast
7:55 PM 62.6 °F 60.1 °F 91% 29.89 in 1.2 mi East 9.2 mph - N/A   Overcast
8:15 PM 62.6 °F 60.3 °F 92% 29.88 in 1.2 mi East 10.4 mph - N/A   Overcast
8:34 PM 62.6 °F 60.3 °F 92% 29.87 in 1.2 mi East 10.4 mph - N/A   Overcast
8:55 PM 62.8 °F 60.4 °F 92% 29.87 in 0.8 mi East 10.4 mph - N/A   Overcast
9:14 PM 62.8 °F 60.8 °F 93% 29.88 in 1.0 mi East 10.4 mph 16.1 mph N/A   Overcast
9:35 PM 62.8 °F 60.8 °F 93% 29.87 in 0.8 mi East 9.2 mph 16.1 mph N/A   Overcast
9:55 PM 62.8 °F 60.8 °F 93% 29.86 in 0.8 mi East 10.4 mph - N/A   Overcast
10:14 PM 62.8 °F 60.8 °F 93% 29.86 in 0.8 mi ESE 11.5 mph - N/A   Overcast
10:35 PM 63.0 °F 60.8 °F 93% 29.85 in 4.0 mi East 8.1 mph - N/A   Overcast
10:55 PM 64.0 °F 61.9 °F 93% 29.84 in 10.0 mi East 8.1 mph - N/A   Overcast
11:14 PM 64.0 °F 61.7 °F 92% 29.83 in 5.0 mi East 8.1 mph - N/A   Overcast
11:35 PM 64.0 °F 61.7 °F 92% 29.83 in 2.5 mi SE 5.8 mph - N/A Rain Rain
11:54 PM 64.0 °F 61.7 °F 92% 29.83 in 3.0 mi ESE 8.1 mph - N/A Rain Heavy Rain